Location: ???????
(55.8930°N, 38.0586°E)
Time: 19:42:18
(UTC+00:00)

Cosmos 1733 - Pass Details

Date: 14 April 2024
Orbit: 458 x 471 km, 82.5° (Epoch: 18 May)

Event Time Altitude Azimuth Distance (km) Brightness Sun altitude
Rises 00:11:41 0° 349° (N) 2,563 7.3 -16.3°
Reaches altitude 10° 00:13:49 10° 353° (N) 1,677 6.3 -16.1°
Maximum altitude 00:17:28 65° 75° (ENE) 536 3.4 -15.8°
Drops below altitude 10° 00:21:04 10° 159° (SSE) 1,657 5.5 -15.4°
Enters shadow 00:21:30 - 160° (SSE) 1,836 5.7 -15.4°
